| time (UTC) | temp F | wind direction | speed MPH | gust MPH | rain 1hr in | rain 24hr in | rain mn in | humidity % | barometer mb |
| 20260906221516 | 75 | 171 | 0.0 | 3.0 | 0.00 | 0.00 | 0.00 | 44 | 1013.1 |
| 20260906221016 | 76 | 171 | 0.0 | 2.0 | 0.00 | 0.00 | 0.00 | 44 | 1013.1 |
| 20260906220515 | 76 | 171 | 0.0 | 1.0 | 0.00 | 0.00 | 0.00 | 44 | 1013.0 |
| 20260906220015 | 76 | 171 | 0.0 | 4.0 | 0.00 | 0.00 | 0.00 | 44 | 1013.0 |
| 20260906215515 | 76 | 171 | 1.0 | 4.0 | 0.00 | 0.00 | 0.00 | 44 | 1013.2 |
| 20260906215014 | 76 | 63 | 0.0 | 2.0 | 0.00 | 0.00 | 0.00 | 44 | 1013.1 |
| 20260906214517 | 76 | 63 | 0.0 | 2.0 | 0.00 | 0.00 | 0.00 | 44 | 1013.2 |
| 20260906214021 | 75 | 63 | 0.0 | 4.0 | 0.00 | 0.00 | 0.00 | 44 | 1013.3 |
| 20260906213513 | 75 | 63 | 2.0 | 6.0 | 0.00 | 0.00 | 0.00 | 44 | 1013.4 |
| 20260906213018 | 75 | 335 | 1.0 | 6.0 | 0.00 | 0.00 | 0.00 | 44 | 1013.4 |
| 20260906212512 | 76 | 156 | 3.0 | 6.0 | 0.00 | 0.00 | 0.00 | 44 | 1013.5 |
| 20260906212013 | 76 | 156 | 1.0 | 6.0 | 0.00 | 0.00 | 0.00 | 43 | 1013.5 |
| 20260906211519 | 76 | 156 | 1.0 | 5.0 | 0.00 | 0.00 | 0.00 | 44 | 1013.6 |
| 20260906211015 | 75 | 156 | 1.0 | 5.0 | 0.00 | 0.00 | 0.00 | 43 | 1013.6 |
| 20260906210510 | 75 | 70 | 2.0 | 4.0 | 0.00 | 0.00 | 0.00 | 44 | 1013.8 |
| 20260906210010 | 75 | 70 | 0.0 | 5.0 | 0.00 | 0.00 | 0.00 | 45 | 1013.8 |
| 20260906205509 | 75 | 70 | 1.0 | 6.0 | 0.00 | 0.00 | 0.00 | 43 | 1013.9 |
| 20260906205008 | 75 | 70 | 2.0 | 6.0 | 0.00 | 0.00 | 0.00 | 42 | 1014.0 |
| 20260906204520 | 75 | 70 | 2.0 | 4.0 | 0.00 | 0.00 | 0.00 | 43 | 1014.0 |
| 20260906204009 | 75 | 70 | 1.0 | 4.0 | 0.00 | 0.00 | 0.00 | 41 | 1014.1 |
| 20260906203508 | 75 | 70 | 0.0 | 5.0 | 0.00 | 0.00 | 0.00 | 41 | 1013.9 |
| 20260906203008 | 75 | 70 | 2.0 | 5.0 | 0.00 | 0.00 | 0.00 | 41 | 1013.9 |
| 20260906202507 | 75 | 63 | 2.0 | 6.0 | 0.00 | 0.00 | 0.00 | 40 | 1013.9 |
| 20260906202009 | 76 | 74 | 2.0 | 6.0 | 0.00 | 0.00 | 0.00 | 39 | 1013.9 |
| 20260906201508 | 76 | 69 | 1.0 | 7.0 | 0.00 | 0.00 | 0.00 | 39 | 1014.0 |
| 20260906201007 | 76 | 69 | 0.0 | 9.0 | 0.00 | 0.00 | 0.00 | 38 | 1014.0 |
| 20260906200507 | 77 | 70 | 2.0 | 9.0 | 0.00 | 0.00 | 0.00 | 37 | 1013.8 |
| 20260906200007 | 78 | 72 | 2.0 | 7.0 | 0.00 | 0.00 | 0.00 | 36 | 1013.9 |
| 20260906195507 | 78 | 90 | 1.0 | 4.0 | 0.00 | 0.00 | 0.00 | 36 | 1013.9 |
| 20260906195008 | 78 | 46 | 1.0 | 5.0 | 0.00 | 0.00 | 0.00 | 37 | 1013.9 |
| 20260906194509 | 79 | 36 | 1.0 | 9.0 | 0.00 | 0.00 | 0.00 | 33 | 1013.9 |
| 20260906194009 | 80 | 45 | 3.0 | 9.0 | 0.00 | 0.00 | 0.00 | 31 | 1013.8 |
| 20260906193506 | 81 | 34 | 1.0 | 11.0 | 0.00 | 0.00 | 0.00 | 32 | 1013.8 |
| 20260906193006 | 81 | 42 | 4.0 | 11.0 | 0.00 | 0.00 | 0.00 | 31 | 1013.9 |
| 20260906192504 | 81 | 37 | 2.0 | 10.0 | 0.00 | 0.00 | 0.00 | 37 | 1013.9 |
| 20260906192005 | 81 | 73 | 3.0 | 8.0 | 0.00 | 0.00 | 0.00 | 37 | 1014.0 |
| 20260906191509 | 81 | 65 | 2.0 | 10.0 | 0.00 | 0.00 | 0.00 | 38 | 1014.1 |
| 20260906191003 | 81 | 56 | 2.0 | 10.0 | 0.00 | 0.00 | 0.00 | 37 | 1014.3 |
| 20260906190502 | 80 | 57 | 2.0 | 10.0 | 0.00 | 0.00 | 0.00 | 39 | 1014.3 |
| 20260906190001 | 79 | 77 | 3.0 | 9.0 | 0.00 | 0.00 | 0.00 | 38 | 1014.4 |
| 20260906185501 | 79 | 23 | 2.0 | 8.0 | 0.00 | 0.00 | 0.00 | 35 | 1014.4 |
| 20260906185101 | 79 | 64 | 2.0 | 9.0 | 0.00 | 0.00 | 0.00 | 39 | 1014.5 |
| 20260906184600 | 78 | 52 | 2.0 | 11.0 | 0.00 | 0.00 | 0.00 | 39 | 1014.6 |
| 20260906184100 | 79 | 57 | 2.0 | 11.0 | 0.00 | 0.00 | 0.00 | 36 | 1014.6 |
| 20260906183600 | 79 | 77 | 4.0 | 9.0 | 0.00 | 0.00 | 0.00 | 33 | 1014.7 |
| 20260906183108 | 79 | 38 | 2.0 | 7.0 | 0.00 | 0.00 | 0.00 | 36 | 1014.7 |
| 20260906182557 | 78 | 1 | 1.0 | 7.0 | 0.00 | 0.00 | 0.00 | 39 | 1014.9 |
| 20260906182057 | 77 | 74 | 2.0 | 7.0 | 0.00 | 0.00 | 0.00 | 36 | 1014.9 |
| 20260906181631 | 77 | 104 | 4.0 | 7.0 | 0.00 | 0.00 | 0.00 | 35 | 1014.9 |
| 20260906181054 | 77 | 73 | 1.0 | 8.0 | 0.00 | 0.00 | 0.00 | 39 | 1015.0 |
| 20260906180554 | 77 | 13 | 2.0 | 8.0 | 0.00 | 0.00 | 0.00 | 39 | 1015.2 |
| 20260906180056 | 77 | 17 | 2.0 | 8.0 | 0.00 | 0.00 | 0.00 | 39 | 1015.2 |
| 20260906175554 | 78 | 80 | 2.0 | 9.0 | 0.00 | 0.00 | 0.00 | 39 | 1015.3 |
| 20260906175052 | 79 | 12 | 3.0 | 9.0 | 0.00 | 0.00 | 0.00 | 36 | 1015.2 |
| 20260906174553 | 79 | 46 | 2.0 | 7.0 | 0.00 | 0.00 | 0.00 | 38 | 1015.3 |
| 20260906174051 | 79 | 70 | 2.0 | 6.0 | 0.00 | 0.00 | 0.00 | 37 | 1015.3 |
| 20260906173549 | 78 | 30 | 1.0 | 6.0 | 0.00 | 0.00 | 0.00 | 39 | 1015.4 |
| 20260906173049 | 77 | 61 | 1.0 | 6.0 | 0.00 | 0.00 | 0.00 | 40 | 1015.4 |
| 20260906172548 | 76 | 34 | 0.0 | 10.0 | 0.00 | 0.00 | 0.00 | 44 | 1015.5 |
| 20260906172049 | 75 | 47 | 3.0 | 10.0 | 0.00 | 0.00 | 0.00 | 46 | 1015.6 |
| 20260906171600 | 77 | 81 | 3.0 | 8.0 | 0.00 | 0.00 | 0.00 | 43 | 1015.6 |
| 20260906171044 | 77 | 24 | 3.0 | 7.0 | 0.00 | 0.00 | 0.00 | 43 | 1015.6 |
| 20260906170543 | 78 | 61 | 1.0 | 7.0 | 0.00 | 0.00 | 0.00 | 42 | 1015.7 |
| 20260906170048 | 78 | 52 | 2.0 | 8.0 | 0.00 | 0.00 | 0.00 | 40 | 1015.6 |
| 20260906165544 | 78 | 15 | 1.0 | 9.0 | 0.00 | 0.00 | 0.00 | 40 | 1015.6 |
| 20260906165040 | 78 | 31 | 3.0 | 9.0 | 0.00 | 0.00 | 0.00 | 39 | 1015.7 |
| 20260906164543 | 77 | 42 | 1.0 | 6.0 | 0.00 | 0.00 | 0.00 | 40 | 1015.7 |
| 20260906164040 | 76 | 85 | 1.0 | 7.0 | 0.00 | 0.00 | 0.00 | 40 | 1015.7 |
| 20260906163535 | 75 | 10 | 1.0 | 7.0 | 0.00 | 0.00 | 0.00 | 42 | 1015.6 |
| 20260906163034 | 75 | 90 | 2.0 | 6.0 | 0.00 | 0.00 | 0.00 | 42 | 1015.7 |
| 20260906162533 | 75 | 73 | 2.0 | 5.0 | 0.00 | 0.00 | 0.00 | 43 | 1015.7 |
| 20260906162032 | 74 | 46 | 1.0 | 6.0 | 0.00 | 0.00 | 0.00 | 45 | 1015.6 |
| 20260906161532 | 74 | 67 | 2.0 | 6.0 | 0.00 | 0.00 | 0.00 | 46 | 1015.7 |
| 20260906161034 | 73 | 7 | 1.0 | 6.0 | 0.00 | 0.00 | 0.00 | 46 | 1015.7 |
| 20260906160531 | 73 | 77 | 2.0 | 6.0 | 0.00 | 0.00 | 0.00 | 46 | 1015.7 |
| 20260906160031 | 74 | 87 | 2.0 | 9.0 | 0.00 | 0.00 | 0.00 | 46 | 1015.5 |
| 20260906155530 | 74 | 54 | 3.0 | 9.0 | 0.00 | 0.00 | 0.00 | 50 | 1015.5 |
| 20260906155029 | 74 | 38 | 2.0 | 6.0 | 0.00 | 0.00 | 0.00 | 52 | 1015.5 |
| 20260906154537 | 74 | 352 | 2.0 | 6.0 | 0.00 | 0.00 | 0.00 | 51 | 1015.4 |
| 20260906154028 | 73 | 34 | 1.0 | 5.0 | 0.00 | 0.00 | 0.00 | 51 | 1015.4 |
| 20260906153525 | 73 | 65 | 0.0 | 5.0 | 0.00 | 0.00 | 0.00 | 50 | 1015.4 |
| 20260906153016 | 73 | 121 | 2.0 | 5.0 | 0.00 | 0.00 | 0.00 | 50 | 1015.4 |
| 20260906152512 | 72 | 66 | 1.0 | 5.0 | 0.00 | 0.00 | 0.00 | 50 | 1015.4 |
| 20260906152009 | 72 | 63 | 2.0 | 5.0 | 0.00 | 0.00 | 0.00 | 51 | 1015.3 |
| 20260906151508 | 71 | 326 | 0.0 | 2.0 | 0.00 | 0.00 | 0.00 | 53 | 1015.4 |
| 20260906151011 | 71 | 202 | 1.0 | 2.0 | 0.00 | 0.00 | 0.00 | 52 | 1015.5 |
| 20260906150506 | 71 | 32 | 0.0 | 2.0 | 0.00 | 0.00 | 0.00 | 52 | 1015.5 |
| 20260906150050 | 70 | 32 | 0.0 | 2.0 | 0.00 | 0.00 | 0.00 | 53 | 1015.5 |
| 20260906145548 | 69 | 32 | 0.0 | 2.0 | 0.00 | 0.00 | 0.00 | 53 | 1015.6 |
| 20260906145047 | 68 | 32 | 0.0 | 5.0 | 0.00 | 0.00 | 0.00 | 57 | 1015.6 |
| 20260906144605 | 68 | 32 | 0.0 | 5.0 | 0.00 | 0.00 | 0.00 | 56 | 1015.6 |
| 20260906144045 | 67 | 32 | 1.0 | 5.0 | 0.00 | 0.00 | 0.00 | 57 | 1015.5 |
| 20260906143546 | 66 | 32 | 0.0 | 3.0 | 0.00 | 0.00 | 0.00 | 58 | 1015.6 |
| 20260906143043 | 67 | 32 | 1.0 | 3.0 | 0.00 | 0.00 | 0.00 | 55 | 1015.6 |
| 20260906142542 | 68 | 32 | 0.0 | 3.0 | 0.00 | 0.00 | 0.00 | 52 | 1015.4 |
| 20260906142042 | 69 | 313 | 0.0 | 1.0 | 0.00 | 0.00 | 0.00 | 51 | 1015.3 |
| 20260906141541 | 68 | 313 | 0.0 | 2.0 | 0.00 | 0.00 | 0.00 | 52 | 1015.3 |
| 20260906141040 | 66 | 163 | 0.0 | 1.0 | 0.00 | 0.00 | 0.00 | 53 | 1015.2 |
| 20260906140539 | 64 | 163 | 0.0 | 0.0 | 0.00 | 0.00 | 0.00 | 50 | 1015.1 |
| 20260906140038 | 63 | 163 | 0.0 | 0.0 | 0.00 | 0.00 | 0.00 | 52 | 1015.1 |
| 20260906135537 | 62 | 163 | 0.0 | 0.0 | 0.00 | 0.00 | 0.00 | 56 | 1015.0 |
| 20260906135036 | 62 | 163 | 0.0 | 0.0 | 0.00 | 0.00 | 0.00 | 58 | 1015.0 |
| 20260906134536 | 62 | 163 | 0.0 | 0.0 | 0.00 | 0.00 | 0.00 | 60 | 1015.0 |
| 20260906134035 | 61 | 163 | 0.0 | 3.0 | 0.00 | 0.00 | 0.00 | 61 | 1015.0 |
| 20260906133532 | 61 | 163 | 1.0 | 3.0 | 0.00 | 0.00 | 0.00 | 63 | 1015.0 |
| 20260906133029 | 60 | 163 | 0.0 | 4.0 | 0.00 | 0.00 | 0.00 | 65 | 1015.1 |
| 20260906132528 | 60 | 150 | 2.0 | 4.0 | 0.00 | 0.00 | 0.00 | 65 | 1015.1 |
| 20260906132027 | 60 | 150 | 1.0 | 4.0 | 0.00 | 0.00 | 0.00 | 64 | 1015.1 |
| 20260906131526 | 60 | 221 | 2.0 | 3.0 | 0.00 | 0.00 | 0.00 | 63 | 1015.1 |
| 20260906131025 | 60 | 221 | 0.0 | 2.0 | 0.00 | 0.00 | 0.00 | 61 | 1015.1 |
| 20260906130525 | 60 | 221 | 0.0 | 1.0 | 0.00 | 0.00 | 0.00 | 59 | 1015.0 |
| 20260906130024 | 60 | 221 | 0.0 | 2.0 | 0.00 | 0.00 | 0.00 | 59 | 1014.9 |
| 20260906125523 | 59 | 221 | 0.0 | 3.0 | 0.00 | 0.00 | 0.00 | 60 | 1015.0 |
| 20260906125023 | 59 | 221 | 2.0 | 3.0 | 0.00 | 0.00 | 0.00 | 61 | 1014.9 |
| 20260906124524 | 59 | 221 | 1.0 | 3.0 | 0.00 | 0.00 | 0.00 | 63 | 1014.9 |
| 20260906124022 | 59 | 221 | 0.0 | 0.0 | 0.00 | 0.00 | 0.00 | 62 | 1014.9 |
| 20260906123521 | 59 | 221 | 0.0 | 1.0 | 0.00 | 0.00 | 0.00 | 63 | 1014.8 |
| 20260906123020 | 59 | 221 | 0.0 | 1.0 | 0.00 | 0.00 | 0.00 | 63 | 1014.7 |
| 20260906122520 | 59 | 221 | 0.0 | 3.0 | 0.00 | 0.00 | 0.00 | 63 | 1014.6 |
| 20260906122020 | 59 | 221 | 0.0 | 3.0 | 0.00 | 0.00 | 0.00 | 64 | 1014.6 |
| 20260906121518 | 59 | 221 | 0.0 | 1.0 | 0.00 | 0.00 | 0.00 | 65 | 1014.8 |
| 20260906121021 | 59 | 221 | 0.0 | 1.0 | 0.00 | 0.00 | 0.00 | 65 | 1014.6 |
| 20260906120517 | 59 | 221 | 0.0 | 1.0 | 0.00 | 0.00 | 0.00 | 65 | 1014.5 |
| 20260906120016 | 59 | 221 | 0.0 | 0.0 | 0.00 | 0.00 | 0.00 | 65 | 1014.5 |
| 20260906115515 | 59 | 221 | 0.0 | 1.0 | 0.00 | 0.00 | 0.00 | 65 | 1014.5 |
| 20260906115013 | 59 | 221 | 0.0 | 4.0 | 0.00 | 0.00 | 0.00 | 63 | 1014.5 |
| 20260906114528 | 60 | 221 | 1.0 | 4.0 | 0.00 | 0.00 | 0.00 | 59 | 1014.5 |
| 20260906114011 | 60 | 221 | 0.0 | 3.0 | 0.00 | 0.00 | 0.00 | 56 | 1014.4 |
| 20260906113511 | 61 | 221 | 0.0 | 3.0 | 0.00 | 0.00 | 0.00 | 55 | 1014.4 |
| 20260906113010 | 61 | 221 | 0.0 | 3.0 | 0.00 | 0.00 | 0.00 | 56 | 1014.3 |
| 20260906112510 | 61 | 221 | 1.0 | 3.0 | 0.00 | 0.00 | 0.00 | 55 | 1014.2 |
| 20260906112013 | 61 | 221 | 2.0 | 3.0 | 0.00 | 0.00 | 0.00 | 55 | 1014.2 |
| 20260906111509 | 61 | 221 | 1.0 | 3.0 | 0.00 | 0.00 | 0.00 | 54 | 1014.3 |
| 20260906111009 | 61 | 221 | 0.0 | 1.0 | 0.00 | 0.00 | 0.00 | 57 | 1014.3 |
| 20260906110509 | 61 | 221 | 0.0 | 3.0 | 0.00 | 0.00 | 0.00 | 58 | 1014.1 |
| 20260906110012 | 60 | 221 | 1.0 | 3.0 | 0.00 | 0.00 | 0.00 | 59 | 1014.1 |
| 20260906105509 | 60 | 221 | 0.0 | 1.0 | 0.00 | 0.00 | 0.00 | 61 | 1014.2 |
| 20260906105011 | 60 | 221 | 0.0 | 3.0 | 0.00 | 0.00 | 0.00 | 61 | 1014.3 |
| 20260906104508 | 60 | 221 | 1.0 | 3.0 | 0.00 | 0.00 | 0.00 | 61 | 1014.3 |
| 20260906104008 | 60 | 221 | 1.0 | 3.0 | 0.00 | 0.00 | 0.00 | 60 | 1014.3 |
| 20260906103507 | 60 | 221 | 2.0 | 5.0 | 0.00 | 0.00 | 0.00 | 59 | 1014.3 |
| 20260906103005 | 61 | 221 | 3.0 | 5.0 | 0.00 | 0.00 | 0.00 | 58 | 1014.3 |
| 20260906102508 | 61 | 221 | 2.0 | 4.0 | 0.00 | 0.00 | 0.00 | 59 | 1014.2 |
| 20260906102003 | 61 | 221 | 0.0 | 2.0 | 0.00 | 0.00 | 0.00 | 59 | 1014.4 |
| 20260906101502 | 62 | 221 | 0.0 | 1.0 | 0.00 | 0.00 | 0.00 | 56 | 1014.4 |
| 20260906101102 | 63 | 221 | 0.0 | 3.0 | 0.00 | 0.00 | 0.00 | 56 | 1014.4 |
| 20260906100605 | 64 | 221 | 0.0 | 3.0 | 0.00 | 0.00 | 0.00 | 53 | 1014.3 |
| 20260906100057 | 65 | 221 | 0.0 | 1.0 | 0.00 | 0.00 | 0.00 | 49 | 1014.3 |
| 20260906095600 | 65 | 221 | 0.0 | 1.0 | 0.00 | 0.00 | 0.00 | 48 | 1014.2 |
| 20260906095057 | 65 | 221 | 0.0 | 3.0 | 0.00 | 0.00 | 0.00 | 48 | 1014.2 |
| 20260906094613 | 65 | 221 | 1.0 | 3.0 | 0.00 | 0.00 | 0.00 | 48 | 1014.2 |
| 20260906094057 | 65 | 221 | 1.0 | 3.0 | 0.00 | 0.00 | 0.00 | 48 | 1014.2 |
| 20260906093557 | 65 | 221 | 0.0 | 2.0 | 0.00 | 0.00 | 0.00 | 49 | 1014.3 |
| 20260906093129 | 65 | 221 | 1.0 | 3.0 | 0.00 | 0.00 | 0.00 | 49 | 1014.3 |
| 20260906092556 | 65 | 221 | 1.0 | 4.0 | 0.00 | 0.00 | 0.00 | 49 | 1014.4 |
| 20260906092055 | 65 | 221 | 2.0 | 4.0 | 0.00 | 0.00 | 0.00 | 50 | 1014.3 |
| 20260906091606 | 66 | 221 | 3.0 | 4.0 | 0.00 | 0.00 | 0.00 | 50 | 1014.2 |
| 20260906091057 | 66 | 221 | 0.0 | 2.0 | 0.00 | 0.00 | 0.00 | 50 | 1014.1 |
| 20260906090554 | 66 | 221 | 0.0 | 2.0 | 0.00 | 0.00 | 0.00 | 51 | 1014.1 |
| 20260906090054 | 65 | 221 | 0.0 | 2.0 | 0.00 | 0.00 | 0.00 | 51 | 1014.1 |
| 20260906085555 | 66 | 221 | 0.0 | 0.0 | 0.00 | 0.00 | 0.00 | 49 | 1014.0 |
| 20260906085053 | 66 | 221 | 0.0 | 3.0 | 0.00 | 0.00 | 0.00 | 48 | 1013.9 |
| 20260906084552 | 66 | 221 | 0.0 | 2.0 | 0.00 | 0.00 | 0.00 | 48 | 1014.0 |
| 20260906084055 | 66 | 221 | 0.0 | 2.0 | 0.00 | 0.00 | 0.00 | 47 | 1013.9 |
| 20260906083551 | 66 | 221 | 0.0 | 2.0 | 0.00 | 0.00 | 0.00 | 46 | 1013.9 |
| 20260906083051 | 67 | 221 | 0.0 | 2.0 | 0.00 | 0.00 | 0.00 | 45 | 1013.7 |
| 20260906082550 | 67 | 221 | 0.0 | 3.0 | 0.00 | 0.00 | 0.00 | 45 | 1013.9 |
| 20260906082050 | 67 | 221 | 0.0 | 3.0 | 0.00 | 0.00 | 0.00 | 46 | 1013.9 |
| 20260906081550 | 67 | 221 | 1.0 | 4.0 | 0.00 | 0.00 | 0.00 | 46 | 1013.9 |
| 20260906081049 | 66 | 221 | 2.0 | 4.0 | 0.00 | 0.00 | 0.00 | 46 | 1013.9 |
| 20260906080549 | 66 | 221 | 0.0 | 1.0 | 0.00 | 0.00 | 0.00 | 47 | 1014.0 |
| 20260906080049 | 66 | 221 | 0.0 | 0.0 | 0.00 | 0.00 | 0.00 | 47 | 1014.1 |
| 20260906075548 | 66 | 221 | 0.0 | 0.0 | 0.00 | 0.00 | 0.00 | 47 | 1014.1 |
| 20260906075047 | 66 | 221 | 0.0 | 1.0 | 0.00 | 0.00 | 0.00 | 47 | 1014.1 |
| 20260906074546 | 66 | 221 | 0.0 | 1.0 | 0.00 | 0.00 | 0.00 | 47 | 1014.1 |
| 20260906074045 | 67 | 221 | 0.0 | 0.0 | 0.00 | 0.00 | 0.00 | 46 | 1014.1 |
| 20260906073543 | 67 | 221 | 0.0 | 0.0 | 0.00 | 0.00 | 0.00 | 45 | 1014.1 |
| 20260906073042 | 68 | 221 | 0.0 | 0.0 | 0.00 | 0.00 | 0.00 | 45 | 1014.1 |
| 20260906072542 | 68 | 221 | 0.0 | 0.0 | 0.00 | 0.00 | 0.00 | 44 | 1014.1 |
| 20260906072040 | 68 | 221 | 0.0 | 0.0 | 0.00 | 0.00 | 0.00 | 44 | 1014.2 |
| 20260906071539 | 68 | 221 | 0.0 | 0.0 | 0.00 | 0.00 | 0.00 | 44 | 1014.1 |
| 20260906071040 | 68 | 221 | 0.0 | 1.0 | 0.00 | 0.00 | 0.00 | 44 | 1014.0 |
| 20260906070540 | 69 | 221 | 0.0 | 1.0 | 0.00 | 0.00 | 0.00 | 43 | 1014.1 |
| 20260906070039 | 69 | 221 | 0.0 | 5.0 | 0.00 | 0.00 | 0.00 | 43 | 1014.0 |
| 20260906065538 | 69 | 221 | 2.0 | 5.0 | 0.00 | 0.00 | 0.00 | 43 | 1014.0 |
| 20260906065038 | 69 | 221 | 3.0 | 6.0 | 0.00 | 0.00 | 0.00 | 43 | 1014.0 |
| 20260906064536 | 69 | 221 | 3.0 | 9.0 | 0.00 | 0.00 | 0.00 | 43 | 1013.9 |
| 20260906064035 | 70 | 217 | 6.0 | 9.0 | 0.00 | 0.00 | 0.00 | 43 | 1014.0 |
| 20260906063535 | 70 | 217 | 3.0 | 5.0 | 0.00 | 0.00 | 0.00 | 42 | 1014.0 |
| 20260906063036 | 70 | 217 | 2.0 | 6.0 | 0.00 | 0.00 | 0.00 | 42 | 1014.1 |
| 20260906062537 | 70 | 217 | 4.0 | 11.0 | 0.00 | 0.00 | 0.00 | 42 | 1014.2 |
| 20260906062034 | 70 | 240 | 5.0 | 12.0 | 0.00 | 0.00 | 0.00 | 42 | 1014.1 |
| 20260906061532 | 69 | 206 | 8.0 | 12.0 | 0.00 | 0.00 | 0.00 | 42 | 1014.1 |
| 20260906061031 | 69 | 244 | 8.0 | 11.0 | 0.00 | 0.00 | 0.00 | 43 | 1014.0 |
| 20260906060533 | 69 | 235 | 5.0 | 11.0 | 0.00 | 0.00 | 0.00 | 43 | 1014.2 |
| 20260906060029 | 69 | 235 | 6.0 | 11.0 | 0.00 | 0.00 | 0.00 | 43 | 1014.3 |
| 20260906055528 | 70 | 282 | 4.0 | 10.0 | 0.00 | 0.00 | 0.00 | 42 | 1014.4 |
| 20260906055028 | 70 | 246 | 6.0 | 10.0 | 0.00 | 0.00 | 0.00 | 41 | 1014.6 |
| 20260906054529 | 71 | 252 | 4.0 | 12.0 | 0.00 | 0.00 | 0.00 | 41 | 1014.6 |
| 20260906054028 | 71 | 167 | 5.0 | 12.0 | 0.00 | 0.00 | 0.00 | 40 | 1014.7 |
| 20260906053528 | 71 | 190 | 8.0 | 17.0 | 0.00 | 0.00 | 0.00 | 40 | 1014.8 |
| 20260906053026 | 71 | 186 | 10.0 | 17.0 | 0.00 | 0.00 | 0.00 | 39 | 1015.0 |
| 20260906052526 | 71 | 151 | 11.0 | 16.0 | 0.00 | 0.00 | 0.00 | 39 | 1014.9 |
| 20260906052026 | 71 | 172 | 6.0 | 10.0 | 0.00 | 0.00 | 0.00 | 39 | 1014.9 |
| 20260906051526 | 71 | 124 | 2.0 | 7.0 | 0.00 | 0.00 | 0.00 | 38 | 1014.9 |
| 20260906051027 | 71 | 89 | 3.0 | 6.0 | 0.00 | 0.00 | 0.00 | 38 | 1014.9 |
| 20260906050525 | 71 | 34 | 0.0 | 3.0 | 0.00 | 0.00 | 0.00 | 38 | 1014.6 |
| 20260906050023 | 71 | 32 | 0.0 | 4.0 | 0.00 | 0.00 | 0.00 | 38 | 1014.5 |
| 20260906045522 | 71 | 174 | 0.0 | 4.0 | 0.00 | 0.00 | 0.00 | 37 | 1014.4 |
| 20260906045022 | 72 | 174 | 0.0 | 1.0 | 0.00 | 0.00 | 0.00 | 37 | 1014.3 |
| 20260906044522 | 73 | 174 | 0.0 | 6.0 | 0.00 | 0.00 | 0.00 | 36 | 1014.2 |
| 20260906044022 | 73 | 174 | 0.0 | 8.0 | 0.00 | 0.00 | 0.00 | 36 | 1014.2 |
| 20260906043521 | 73 | 174 | 4.0 | 11.0 | 0.00 | 0.00 | 0.00 | 35 | 1014.1 |
| 20260906043021 | 73 | 256 | 6.0 | 11.0 | 0.00 | 0.00 | 0.00 | 35 | 1013.9 |
| 20260906042520 | 73 | 256 | 6.0 | 16.0 | 0.00 | 0.00 | 0.00 | 35 | 1013.8 |
| 20260906042021 | 73 | 215 | 12.0 | 16.0 | 0.00 | 0.00 | 0.00 | 35 | 1013.8 |
| 20260906041521 | 73 | 235 | 10.0 | 20.0 | 0.00 | 0.00 | 0.00 | 36 | 1013.8 |
| 20260906041020 | 72 | 225 | 12.0 | 20.0 | 0.00 | 0.00 | 0.00 | 36 | 1013.8 |
| 20260906040520 | 72 | 221 | 10.0 | 16.0 | 0.00 | 0.00 | 0.00 | 37 | 1013.9 |
| 20260906040027 | 71 | 271 | 10.0 | 16.0 | 0.00 | 0.00 | 0.00 | 37 | 1014.1 |
| 20260906035519 | 71 | 163 | 7.0 | 14.0 | 0.00 | 0.00 | 0.00 | 36 | 1014.4 |
| 20260906035021 | 71 | 196 | 3.0 | 9.0 | 0.00 | 0.00 | 0.00 | 35 | 1014.2 |
| 20260906034518 | 72 | 196 | 5.0 | 9.0 | 0.00 | 0.00 | 0.00 | 35 | 1013.9 |
| 20260906034018 | 72 | 206 | 5.0 | 8.0 | 0.00 | 0.00 | 0.00 | 34 | 1013.6 |
| 20260906033518 | 73 | 282 | 3.0 | 5.0 | 0.00 | 0.00 | 0.00 | 33 | 1013.6 |
| 20260906033020 | 72 | 282 | 1.0 | 4.0 | 0.00 | 0.00 | 0.00 | 34 | 1013.5 |
| 20260906032517 | 72 | 282 | 2.0 | 4.0 | 0.00 | 0.00 | 0.00 | 34 | 1013.5 |
| 20260906032117 | 71 | 282 | 1.0 | 4.0 | 0.00 | 0.00 | 0.00 | 35 | 1013.6 |
| 20260906031518 | 71 | 282 | 2.0 | 5.0 | 0.00 | 0.00 | 0.00 | 36 | 1013.5 |
| 20260906031017 | 71 | 282 | 3.0 | 6.0 | 0.00 | 0.00 | 0.00 | 36 | 1013.5 |
| 20260906030517 | 71 | 282 | 3.0 | 6.0 | 0.00 | 0.00 | 0.00 | 36 | 1013.3 |
| 20260906030019 | 71 | 282 | 3.0 | 6.0 | 0.00 | 0.00 | 0.00 | 36 | 1013.3 |
| 20260906025516 | 71 | 282 | 3.0 | 6.0 | 0.00 | 0.00 | 0.00 | 36 | 1013.1 |
| 20260906025017 | 72 | 282 | 3.0 | 7.0 | 0.00 | 0.00 | 0.00 | 35 | 1013.1 |
| 20260906024532 | 72 | 282 | 4.0 | 7.0 | 0.00 | 0.00 | 0.00 | 35 | 1013.0 |
| 20260906024016 | 71 | 263 | 6.0 | 8.0 | 0.00 | 0.00 | 0.00 | 36 | 1012.9 |
| 20260906023516 | 71 | 230 | 4.0 | 6.0 | 0.00 | 0.00 | 0.00 | 37 | 1012.9 |
| 20260906023019 | 72 | 286 | 3.0 | 9.0 | 0.00 | 0.00 | 0.00 | 36 | 1013.0 |
| 20260906022515 | 72 | 275 | 5.0 | 12.0 | 0.00 | 0.00 | 0.00 | 36 | 1012.9 |
| 20260906022015 | 72 | 268 | 9.0 | 12.0 | 0.00 | 0.00 | 0.00 | 36 | 1012.8 |
| 20260906021515 | 72 | 235 | 5.0 | 13.0 | 0.00 | 0.00 | 0.00 | 36 | 1012.9 |
| 20260906021015 | 72 | 230 | 6.0 | 13.0 | 0.00 | 0.00 | 0.00 | 36 | 1012.9 |
| 20260906020514 | 73 | 217 | 6.0 | 11.0 | 0.00 | 0.00 | 0.00 | 37 | 1012.9 |
| 20260906020014 | 73 | 179 | 7.0 | 13.0 | 0.00 | 0.00 | 0.00 | 37 | 1013.1 |
| 20260906015514 | 73 | 185 | 10.0 | 16.0 | 0.00 | 0.00 | 0.00 | 37 | 1013.2 |
| 20260906015014 | 74 | 183 | 9.0 | 16.0 | 0.00 | 0.00 | 0.00 | 36 | 1013.1 |
| 20260906014521 | 74 | 199 | 6.0 | 13.0 | 0.00 | 0.00 | 0.00 | 34 | 1013.0 |
| 20260906014013 | 74 | 235 | 4.0 | 15.0 | 0.00 | 0.00 | 0.00 | 35 | 1013.0 |
| 20260906013513 | 74 | 273 | 9.0 | 19.0 | 0.00 | 0.00 | 0.00 | 35 | 1012.8 |
| 20260906013033 | 74 | 310 | 13.0 | 19.0 | 0.00 | 0.00 | 0.00 | 34 | 1012.7 |
| 20260906012517 | 74 | 280 | 9.0 | 14.0 | 0.00 | 0.00 | 0.00 | 34 | 1012.8 |
| 20260906012012 | 74 | 302 | 8.0 | 15.0 | 0.00 | 0.00 | 0.00 | 34 | 1012.8 |
| 20260906011512 | 74 | 298 | 9.0 | 14.0 | 0.00 | 0.00 | 0.00 | 34 | 1012.8 |
| 20260906011012 | 74 | 280 | 8.0 | 15.0 | 0.00 | 0.00 | 0.00 | 34 | 1012.7 |
| 20260906010512 | 74 | 314 | 9.0 | 15.0 | 0.00 | 0.00 | 0.00 | 34 | 1012.8 |
| 20260906010012 | 74 | 283 | 8.0 | 13.0 | 0.00 | 0.00 | 0.00 | 34 | 1012.7 |
| 20260906005511 | 74 | 321 | 8.0 | 13.0 | 0.00 | 0.00 | 0.00 | 33 | 1012.8 |
| 20260906005013 | 74 | 302 | 6.0 | 15.0 | 0.00 | 0.00 | 0.00 | 33 | 1012.8 |
| 20260906004511 | 74 | 300 | 7.0 | 20.0 | 0.00 | 0.00 | 0.00 | 33 | 1012.8 |
| 20260906004011 | 75 | 338 | 8.0 | 14.0 | 0.00 | 0.00 | 0.00 | 33 | 1012.8 |
| 20260906003511 | 75 | 312 | 8.0 | 14.0 | 0.00 | 0.00 | 0.00 | 34 | 1012.9 |
| 20260906003010 | 75 | 310 | 8.0 | 16.0 | 0.00 | 0.00 | 0.00 | 33 | 1012.9 |
| 20260906002509 | 75 | 329 | 6.0 | 14.0 | 0.00 | 0.00 | 0.00 | 34 | 1013.0 |
| 20260906002011 | 75 | 326 | 7.0 | 14.0 | 0.00 | 0.00 | 0.00 | 34 | 1012.9 |
| 20260906001512 | 75 | 315 | 6.0 | 11.0 | 0.00 | 0.00 | 0.00 | 34 | 1013.0 |
| 20260906001009 | 75 | 281 | 7.0 | 17.0 | 0.00 | 0.00 | 0.00 | 34 | 1013.0 |
| 20260906000509 | 76 | 323 | 7.0 | 17.0 | 0.00 | 0.00 | 0.00 | 33 | 1012.9 |
| 20260906000010 | 77 | 299 | 9.0 | 15.0 | 0.00 | 0.00 | 0.00 | 31 | 1012.8 |
| 20260905235508 | 78 | 296 | 9.0 | 15.0 | 0.00 | 0.00 | 0.00 | 29 | 1012.8 |
| 20260905235009 | 78 | 303 | 4.0 | 10.0 | 0.00 | 0.00 | 0.00 | 28 | 1012.8 |
| 20260905234509 | 78 | 290 | 3.0 | 12.0 | 0.00 | 0.00 | 0.00 | 28 | 1012.7 |
| 20260905234008 | 78 | 278 | 7.0 | 17.0 | 0.00 | 0.00 | 0.00 | 28 | 1012.8 |
| 20260905233509 | 78 | 288 | 7.0 | 17.0 | 0.00 | 0.00 | 0.00 | 28 | 1012.9 |
| 20260905233010 | 78 | 244 | 3.0 | 15.0 | 0.00 | 0.00 | 0.00 | 28 | 1012.9 |
| 20260905232507 | 78 | 258 | 5.0 | 12.0 | 0.00 | 0.00 | 0.00 | 27 | 1012.8 |
| 20260905232008 | 79 | 148 | 3.0 | 15.0 | 0.00 | 0.00 | 0.00 | 27 | 1012.8 |
| 20260905231508 | 79 | 132 | 7.0 | 19.0 | 0.00 | 0.00 | 0.00 | 27 | 1012.7 |
| 20260905231008 | 79 | 120 | 9.0 | 19.0 | 0.00 | 0.00 | 0.00 | 26 | 1012.6 |
| 20260905230507 | 80 | 147 | 6.0 | 12.0 | 0.00 | 0.00 | 0.00 | 26 | 1012.6 |
| 20260905230007 | 80 | 62 | 0.0 | 7.0 | 0.00 | 0.00 | 0.00 | 26 | 1012.5 |
| 20260905225506 | 80 | 76 | 2.0 | 7.0 | 0.00 | 0.00 | 0.00 | 26 | 1012.4 |
| 20260905225006 | 80 | 94 | 1.0 | 5.0 | 0.00 | 0.00 | 0.00 | 25 | 1012.4 |
| 20260905224507 | 81 | 8 | 0.0 | 6.0 | 0.00 | 0.00 | 0.00 | 26 | 1012.4 |
| 20260905224005 | 81 | 106 | 0.0 | 6.0 | 0.00 | 0.00 | 0.00 | 26 | 1012.3 |
| 20260905223505 | 80 | 104 | 3.0 | 7.0 | 0.00 | 0.00 | 0.00 | 26 | 1012.4 |
| 20260905223005 | 80 | 71 | 2.0 | 8.0 | 0.00 | 0.00 | 0.00 | 26 | 1012.3 |
| 20260905222504 | 81 | 76 | 4.0 | 8.0 | 0.00 | 0.00 | 0.00 | 25 | 1012.4 |
| 20260905222004 | 81 | 109 | 1.0 | 7.0 | 0.00 | 0.00 | 0.00 | 25 | 1012.3 |